When you browse on this site, cookies collect data to enhance your experience and personalize the content and advertising you see.
Visit our Privacy Policy to learn more. By continuing to use the site, you agree to this use of cookies and data.
  • In United Kingdom
  • List of Countries
  • For 7 days
  • Water Temperature
  • Satellite Maps
  • Weather Map
  • Weather Widgets
  • user-avatar
    Login

    Hourly Weather Popiele

    Today, 24 January, Thursday

    Time Temperature Precipitation Wind Pressure Humidity
    00:00 -7°C° 0 mm 3 mps 754 mmHg 71%
    01:00 -7°C° 0 mm 3 mps 754 mmHg 73%
    02:00 -7°C° 0 mm 3 mps 754 mmHg 74%
    03:00 -8°C° 0 mm 3 mps 755 mmHg 75%
    04:00 -8°C° 0 mm 3 mps 755 mmHg 76%
    05:00 -8°C° 0 mm 3 mps 755 mmHg 77%
    06:00 -8°C° 0 mm 3 mps 755 mmHg 78%
    07:00 -8°C° 0 mm 3 mps 755 mmHg 79%
    08:00 -8°C° 0 mm 3 mps 756 mmHg 77%
    09:00 -7°C° 0 mm 3 mps 756 mmHg 74%
    10:00 -7°C° 0 mm 3 mps 756 mmHg 72%
    11:00 -7°C° 0 mm 3 mps 756 mmHg 69%
    12:00 -6°C° 0 mm 3 mps 756 mmHg 66%
    13:00 -5°C° 0 mm 3 mps 756 mmHg 63%
    14:00 -5°C° 0 mm 3 mps 756 mmHg 64%
    15:00 -5°C° 0 mm 3 mps 756 mmHg 65%
    16:00 -5°C° 0 mm 3 mps 757 mmHg 66%
    17:00 -6°C° 0 mm 3 mps 757 mmHg 67%
    18:00 -6°C° 0 mm 3 mps 757 mmHg 68%
    19:00 -6°C° 0 mm 3 mps 757 mmHg 70%
    20:00 -7°C° 0 mm 3 mps 757 mmHg 70%
    21:00 -7°C° 0 mm 3 mps 757 mmHg 71%
    22:00 -6°C° 0 mm 2 mps 757 mmHg 72%
    23:00 -6°C° 0 mm 2 mps 757 mmHg 72%

    Tomorrow, 25 January, Friday

    Time Temperature Precipitation Wind Pressure Humidity
    00:00 -7°C° 0 mm 2 mps 757 mmHg 73%
    01:00 -7°C° 0 mm 2 mps 757 mmHg 74%
    02:00 -7°C° 0 mm 2 mps 757 mmHg 74%
    03:00 -7°C° 0 mm 2 mps 757 mmHg 75%
    04:00 -7°C° 0 mm 2 mps 757 mmHg 76%
    05:00 -6°C° 0 mm 1 mps 757 mmHg 76%
    06:00 -6°C° 0 mm 1 mps 757 mmHg 77%
    07:00 -6°C° 0 mm 1 mps 757 mmHg 77%
    08:00 -6°C° 0 mm 1 mps 757 mmHg 75%
    09:00 -6°C° 0 mm 1 mps 757 mmHg 73%
    10:00 -4°C° 0 mm 1 mps 757 mmHg 71%
    11:00 -4°C° 0 mm 1 mps 757 mmHg 68%
    12:00 -3°C° 0 mm 1 mps 757 mmHg 65%
    13:00 -5°C° 0 mm 2 mps 757 mmHg 63%
    14:00 -5°C° 0 mm 2 mps 757 mmHg 63%
    15:00 -5°C° 0 mm 2 mps 756 mmHg 64%
    16:00 -5°C° 0 mm 2 mps 756 mmHg 65%
    17:00 -5°C° 0 mm 2 mps 756 mmHg 65%
    18:00 -5°C° 0 mm 2 mps 756 mmHg 66%
    19:00 -5°C° 0 mm 2 mps 756 mmHg 67%
    20:00 -6°C° 0 mm 3 mps 756 mmHg 68%
    21:00 -6°C° 0 mm 3 mps 755 mmHg 69%
    22:00 -7°C° 0 mm 4 mps 755 mmHg 70%
    23:00 -7°C° 0 mm 4 mps 754 mmHg 70%

    Day after tomorrow, 26 January, Saturday

    Time Temperature Precipitation Wind Pressure Humidity
    00:00 -7°C° 0 mm 4 mps 753 mmHg 69%
    01:00 -7°C° 0 mm 5 mps 752 mmHg 68%
    02:00 -7°C° 0.6 mm 5 mps 751 mmHg 76%
    03:00 -8°C° 0.6 mm 6 mps 750 mmHg 84%
    04:00 -8°C° 0.6 mm 6 mps 749 mmHg 92%
    05:00 -6°C° 0.5 mm 6 mps 748 mmHg 93%
    06:00 -6°C° 0.5 mm 5 mps 748 mmHg 94%
    07:00 -4°C° 0.5 mm 4 mps 747 mmHg 95%
    08:00 -3°C° 0.1 mm 4 mps 747 mmHg 95%
    09:00 -2°C° 0.1 mm 4 mps 746 mmHg 96%
    10:00 -1°C° 0.1 mm 4 mps 746 mmHg 96%
    11:00 -1°C° 0 mm 4 mps 746 mmHg 96%
    12:00 0°C° 0 mm 3 mps 746 mmHg 97%
    13:00 +1°C° 0 mm 3 mps 746 mmHg 97%
    14:00 0°C° 0.3 mm 4 mps 746 mmHg 96%
    15:00 0°C° 0.3 mm 4 mps 746 mmHg 95%
    16:00 0°C° 0.3 mm 4 mps 746 mmHg 94%
    17:00 -1°C° 0.2 mm 4 mps 746 mmHg 95%
    18:00 0°C° 0.2 mm 3 mps 747 mmHg 96%
    19:00 -1°C° 0.2 mm 2 mps 747 mmHg 97%
    20:00 -1°C° 0 mm 3 mps 747 mmHg 96%
    21:00 -2°C° 0 mm 3 mps 747 mmHg 94%
    22:00 -2°C° 0 mm 3 mps 747 mmHg 93%
    23:00 -2°C° 0 mm 3 mps 747 mmHg 93%

    27 January, Sunday

    Time Temperature Precipitation Wind Pressure Humidity
    00:00 -2°C° 0 mm 3 mps 747 mmHg 92%
    01:00 -4°C° 0 mm 4 mps 747 mmHg 91%
    02:00 -3°C° 0.2 mm 4 mps 747 mmHg 92%
    03:00 -3°C° 0.2 mm 4 mps 746 mmHg 93%
    04:00 -4°C° 0.2 mm 5 mps 746 mmHg 93%
    05:00 -4°C° 0.3 mm 5 mps 745 mmHg 93%
    06:00 -4°C° 0.3 mm 6 mps 745 mmHg 93%
    07:00 -4°C° 0.3 mm 6 mps 744 mmHg 93%
    08:00 -4°C° 0.8 mm 6 mps 744 mmHg 93%
    09:00 -4°C° 0.8 mm 7 mps 743 mmHg 93%
    10:00 -4°C° 0.8 mm 7 mps 743 mmHg 93%
    11:00 -3°C° 0.3 mm 6 mps 742 mmHg 94%
    12:00 -3°C° 0.3 mm 6 mps 742 mmHg 95%
    13:00 -1°C° 0.3 mm 5 mps 741 mmHg 96%
    14:00 -1°C° 0.1 mm 5 mps 741 mmHg 97%
    15:00 -1°C° 0.1 mm 5 mps 740 mmHg 97%
    16:00 -1°C° 0.1 mm 4 mps 740 mmHg 97%
    17:00 -1°C° 0.1 mm 4 mps 740 mmHg 97%
    18:00 -1°C° 0.1 mm 4 mps 739 mmHg 97%
    19:00 -1°C° 0.1 mm 4 mps 739 mmHg 96%
    20:00 -1°C° 0.2 mm 4 mps 739 mmHg 97%
    21:00 -1°C° 0.2 mm 4 mps 739 mmHg 97%
    22:00 -1°C° 0.2 mm 4 mps 738 mmHg 97%
    23:00 -1°C° 0.1 mm 4 mps 738 mmHg 97%

    28 January, Monday

    Time Temperature Precipitation Wind Pressure Humidity
    00:00 -1°C° 0.1 mm 4 mps 738 mmHg 96%
    01:00 -1°C° 0.1 mm 4 mps 738 mmHg 95%
    02:00 -1°C° 0 mm 4 mps 738 mmHg 95%
    03:00 -2°C° 0 mm 4 mps 737 mmHg 94%
    04:00 -2°C° 0 mm 4 mps 737 mmHg 93%
    05:00 -2°C° 0 mm 4 mps 737 mmHg 93%
    06:00 -2°C° 0 mm 4 mps 737 mmHg 93%
    07:00 -2°C° 0 mm 4 mps 737 mmHg 93%
    08:00 -2°C° 0 mm 4 mps 737 mmHg 93%
    09:00 -1°C° 0 mm 4 mps 737 mmHg 93%
    10:00 -1°C° 0 mm 4 mps 737 mmHg 93%
    11:00 -1°C° 0 mm 4 mps 737 mmHg 95%
    12:00 0°C° 0 mm 4 mps 737 mmHg 96%
    13:00 +1°C° 0 mm 3 mps 737 mmHg 97%
    14:00 +1°C° 0 mm 3 mps 737 mmHg 97%
    15:00 0°C° 0 mm 3 mps 737 mmHg 96%
    16:00 +1°C° 0 mm 2 mps 737 mmHg 96%
    17:00 +1°C° 0.1 mm 2 mps 737 mmHg 96%
    18:00 +1°C° 0.1 mm 2 mps 737 mmHg 96%
    19:00 +1°C° 0.1 mm 2 mps 738 mmHg 96%
    20:00 +1°C° 0.3 mm 2 mps 738 mmHg 97%
    21:00 0°C° 0.3 mm 3 mps 738 mmHg 97%
    22:00 0°C° 0.3 mm 3 mps 739 mmHg 97%
    23:00 -1°C° 0.2 mm 4 mps 739 mmHg 94%

    29 January, Tuesday

    Time Temperature Precipitation Wind Pressure Humidity
    00:00 -1°C° 0.2 mm 5 mps 740 mmHg 90%
    01:00 -2°C° 0.2 mm 7 mps 740 mmHg 86%
    02:00 -2°C° 0.1 mm 7 mps 741 mmHg 84%
    03:00 -2°C° 0.1 mm 7 mps 741 mmHg 83%
    04:00 -3°C° 0.1 mm 7 mps 742 mmHg 81%
    05:00 -3°C° 0 mm 7 mps 742 mmHg 80%
    06:00 -4°C° 0 mm 6 mps 743 mmHg 79%
    07:00 -4°C° 0 mm 6 mps 744 mmHg 78%
    08:00 -4°C° 0 mm 6 mps 744 mmHg 81%
    09:00 -4°C° 0 mm 6 mps 745 mmHg 84%
    10:00 -4°C° 0 mm 6 mps 745 mmHg 87%
    11:00 -3°C° 0 mm 6 mps 745 mmHg 87%
    12:00 -3°C° 0 mm 6 mps 745 mmHg 87%
    13:00 -2°C° 0 mm 6 mps 746 mmHg 87%
    14:00 -1°C° 0 mm 5 mps 746 mmHg 86%
    15:00 -1°C° 0 mm 5 mps 746 mmHg 86%
    16:00 -1°C° 0 mm 5 mps 746 mmHg 86%
    17:00 -1°C° 0.1 mm 5 mps 746 mmHg 86%
    18:00 -2°C° 0.1 mm 5 mps 746 mmHg 85%
    19:00 -2°C° 0.1 mm 5 mps 746 mmHg 84%
    20:00 -3°C° 0.2 mm 6 mps 745 mmHg 85%
    21:00 -3°C° 0.2 mm 6 mps 745 mmHg 87%
    22:00 -3°C° 0.2 mm 6 mps 745 mmHg 88%
    23:00 -3°C° 0 mm 6 mps 745 mmHg 90%
    Show more